Starlink 34813

operational
NORAD ID: 66196 Int'l Des: 2025-243 Owner: SPXS Country: US Constellation: starlink
LEOCIRCULAR

Über Starlink 34813

Beschreibung wird geladen...

Live-Position

3D-Globus wird geladen...

Nächste Überflüge

Höhenverlauf

Altitude vs Time

uPlot chart will show altitude changes over time

Zweizeiliger Elementsatz

1 66196C 25243U 25299.74006944 .00800960 00000+0 13149-2 0 2990
2 66196 53.1580 157.0515 0009199 275.1494 44.2046 16.01589901 17
Epoch: 26. Okt. 2025 • Age: 126 hours

Aktueller Status

Höhe 256.5 km
Geschwindigkeit 7.76 km/s
Subsatellitenpunkt 53.11°N, 89.22°E
Startdatum 26. Okt. 2025
Alter 4 days
Typ internet

Technische Details

Klassifizierung Payload
Masse 575.00 kg
Trockenmasse 530.00 kg
Gesamtmasse 575.00 kg
Länge 0.30 m
Durchmesser 4.10 m
Spannweite 29.00 m
Form Box + pan
Hersteller SPXS
Bus-Typ Starlink V2MO
Phasenstatus In Orbit
Besitzer/Staat SPXS/US

Große Konstellationen

Loading constellations...